Hors Challenge

La Cor'Huy'Da - Huy (8.60 km)

vendredi 29 novembre 2019

Vous pouvez trouver Le classement original sur : http://ultratiming.be  
 
LA COR'HUY'DA - HUY
DISTANCE : 8.79 km
vendredi 29 novembre 2019
 
Place dos NOM Catégorie Pl/cat temps temps/km Vitesse
01:00:00              
1 4185 BLACHERE ALEXANDRE SEH 1 0:28:03 03:11 18.80
2 4219 RENARD ARNAUD SEH 2 0:28:48 03:17 18.31
3 4174 SNIBA AYOUB SEH 3 0:29:16 03:20 18.02
4 4134 VAN HEE THOMAS SEH 4 0:29:36 03:22 17.82
5 4239 MOTTOUL VINCENT V1H 1 0:29:54 03:24 17.64
6 4349 PHILIPPE PATRICK V2H 1 0:30:23 03:27 17.36
7 4366 PIERARD THIBAULT SEH 5 0:32:16 03:40 16.34
8 4299 ETIENNE FABRICE V2H 2 0:32:19 03:41 16.32
9 4228 SULEAU THOMAS SEH 6 0:32:25 03:41 16.27
10 4065 HOST SANDRINE V1F 1 0:32:26 03:41 16.26
11 4301 DIDIER MATHIEU SEH 7 0:32:37 03:43 16.17
12 4345 FORTON MARC SEH 8 0:32:50 03:44 16.06
13 4208 SCHMITZ BERTRAND SEH 9 0:32:56 03:45 16.01
14 4167 VERNIKOV SONJA JUF 1 0:33:03 03:46 15.96
15 4242 DILIBERTO ANTONINO V2H 3 0:33:09 03:46 15.91
16 4018 COLOMER JEAN-FRANÇOIS V1H 2 0:33:22 03:48 15.80
17 4302 DIDIER PIERRE SEH 10 0:33:25 03:48 15.78
18 4104 RASQUAIN BENOIT V1H 3 0:33:35 03:49 15.70
19 4277 D INVERNO BRIEUC SEH 11 0:33:50 03:51 15.59
20 4025 CROES GÉRALD SEH 12 0:33:52 03:51 15.57
21 4152 DEVILLET GUENAEL V1H 4 0:34:10 03:53 15.43
22 4348 TOSI IRENE SEF 1 0:34:33 03:56 15.26
23 4117 YMAD NAVJI SEH 13 0:34:43 03:57 15.19
24 4116 VANKERCKHOVEN NICOLAS SEH 14 0:34:54 03:58 15.11
25 4334 MARCHANDISSE ROMAIN SEH 15 0:34:55 03:58 15.10
26 4237 ROSSI PETER SEH 16 0:35:09 04:00 15.00
27 4386 VANHAEREN THIBAUT ESPH 1 0:35:10 04:00 15.00
28 4279 DUBOIS CEDRIC SEH 17 0:35:13 04:00 14.97
29 4210 BUCKINX ETIENNE V2H 4 0:35:15 04:01 14.96
30 4221 PAPI CAROLINE SEF 2 0:35:17 04:01 14.95
31 4359 JOSIS NICOLAS SEH 18 0:35:18 04:01 14.94
32 4247 DEL FORNO SAMUEL JUH 1 0:35:26 04:02 14.88
33 4248 DELORME DIMITRI V1H 5 0:35:27 04:02 14.88
34 4112 THOMAS FLORIAN SEH 19 0:35:28 04:02 14.87
35 4304 SCHOUTTETEN KENNY SEH 20 0:35:31 04:02 14.85
36 4129 HAOUCHINE HASSN V2H 5 0:35:36 04:03 14.81
37 4326 DESIMPEL NICOLAS SEH 21 0:35:47 04:04 14.74
38 4315 CAMINELLE MATHIEU SEH 22 0:35:48 04:04 14.73
39 4278 VITELLO LAURENT SEH 23 0:35:52 04:05 14.70
40 4147 MARCHAL OLIVIER V1H 6 0:35:56 04:05 14.68
41 4021 CORSWAREM PIERRE-HENRI SEH 24 0:36:08 04:07 14.59
42 4066 JADIN JULIEN SEH 25 0:36:09 04:07 14.59
43 4217 PIRARD THOMAS SEH 26 0:36:11 04:07 14.57
44 4259 EVRARD JEAN-PATRICK SEH 27 0:36:18 04:08 14.53
45 4196 DOUPAGNE OLIVIER SEH 28 0:36:20 04:08 14.51
46 4190 PONCIN OLIVIER SEH 29 0:36:23 04:08 14.49
47 4048 GASPARD JEREMY SEH 30 0:36:25 04:09 14.48
48 4380 BERTRAND JONATHAN SEH 31 0:36:26 04:09 14.47
49 4083 MARCHANDISSE GAUTHIER SEH 32 0:36:34 04:10 14.42
50 4243 PARENT LIONEL V1H 7 0:36:39 04:10 14.39
51 4045 FRERES LIONEL SEH 33 0:36:41 04:10 14.38
52 4136 DEL FORNO AMELIE SEF 3 0:36:42 04:11 14.37
53 4316 DETHIER FRANÇOIS SEH 34 0:36:43 04:11 14.36
54 4144 KEUTGEN GAUTHIER V1H 8 0:36:48 04:11 14.33
55 4225 LALLEMAND BENOIT V3H 1 0:36:49 04:11 14.32
56 4041 EL ABBAS SOPHIE SEF 4 0:36:59 04:12 14.26
57 4191 GAVAGE JULIEN SEH 35 0:37:11 04:14 14.18
58 4342 MAHAUX PHILIPPE V1H 9 0:37:18 04:15 14.14
59 4102 PYCKE JONATHAN SEH 36 0:37:20 04:15 14.13
60 4215 ENGLEBERT YOURI CAH 1 0:37:24 04:15 14.10
61 4705 LELEU EDOUARD SEH 37 0:37:30 04:16 14.06
62 4218 HEYNE OLIVIER SEH 38 0:37:31 04:16 14.06
63 4333 GUSTIN THIBAUT SEH 39 0:37:45 04:18 13.97
64 4088 MATHY PIERRE-ANDRÉ SEH 40 0:37:48 04:18 13.95
65 4202 MAIRLOT ADRIEN CAH 2 0:37:54 04:19 13.91
66 4293 MICHEL OLIVIER V1H 10 0:38:00 04:19 13.88
67 4352 HALLOIN HAGUENIER SEH 41 0:38:08 04:20 13.83
68 4207 CLICHE CHRISTOPHE V2H 6 0:38:11 04:21 13.81
69 4070 LAMBOTTE PASCAL V2H 7 0:38:13 04:21 13.80
70 4324 FOGUENNE JOSE V2H 8 0:38:14 04:21 13.79
71 4250 ZAMBUTO THOMAS SEH 42 0:38:23 04:22 13.74
72 4231 ZUCCARINI ENZO SEH 43 0:38:23 04:22 13.74
73 4194 SEYNAEVE BENOÎT V1H 11 0:38:25 04:22 13.73
74 4307 VITELLO FABIAN SEH 44 0:38:30 04:23 13.70
75 4255 DELLOYE QUENTIN SEH 45 0:38:48 04:25 13.59
76 4007 BINJE VALÉRIE V1F 2 0:39:06 04:27 13.49
77 4305 SCHOUTTETEN ALAN SEH 46 0:39:12 04:28 13.45
78 4200 PISCART FRANCOISE V1F 3 0:39:19 04:28 13.41
79 4291 FLECHET LIONEL SEH 47 0:39:38 04:31 13.31
80 4071 LAURENT JOHN V1H 12 0:39:39 04:31 13.30
81 4166 BAWIN BENOIT V1H 13 0:39:43 04:31 13.28
82 4251 JACQUES FRANÇOIS ESPH 2 0:39:43 04:31 13.28
83 4035 DENDAL DIDIER V2H 9 0:39:45 04:31 13.27
84 4181 MARCHANDISE DAMIEN SEH 48 0:39:46 04:31 13.26
85 4082 MALHERBE JEAN LUC V1H 14 0:39:47 04:32 13.26
86 4189 CORDIER CHRISTINE V2F 1 0:39:49 04:32 13.24
87 4063 GRAINDORGE FRÉDÉRIC V1H 15 0:39:51 04:32 13.23
88 4080 MALHERBE ANTOINE ESPH 3 0:40:02 04:33 13.17
89 4308 BRASSEUR JORDACHE SEH 49 0:40:06 04:34 13.15
90 4001 ABRAHAM CHRISTOPHE V1H 16 0:40:08 04:34 13.14
91 4105 ROBERFROID OLIVIER V1H 17 0:40:09 04:34 13.13
92 4091 MODAERT DIMITRY V1H 18 0:40:11 04:34 13.12
93 4288 DENIS OLIVIER SEH 50 0:40:13 04:35 13.11
94 4008 4008 N.N. XXX   0:40:26 04:36 13.04
95 4343 LAMPROYE DAVID SEH 51 0:40:41 04:38 12.96
96 4300 VAN DE VOORDE QUENTIN SEH 52 0:40:45 04:38 12.94
97 4716 DANS JULIEN SEH 53 0:40:51 04:39 12.91
98 4311 WILMOTTE ALEXANDRE V1H 19 0:41:01 04:40 12.86
99 4249 HEPTIA NOËL V3H 2 0:41:06 04:41 12.83
100 4285 JAA DOMINIQUE V1H 20 0:41:09 04:41 12.82
101 4283 VITA VINCENZO V1H 21 0:41:09 04:41 12.82
102 4058 GODEFROID GAËTAN V2H 10 0:41:15 04:42 12.78
103 4230 DELHOUGNE ANNE SOPHIE SEF 5 0:41:16 04:42 12.78
104 4284 MATHUES JEAN FRANÇOIS SEH 54 0:41:27 04:43 12.72
105 4261 VAN KERREBROECK ALINE SEF 6 0:41:31 04:43 12.70
106 4275 POTGENS HUGO SEH 55 0:41:31 04:43 12.70
107 4034 DEMEULEMEESTER BENOIT SEH 56 0:41:32 04:44 12.70
108 4394 VAN GORP MAXIME SEH 57 0:41:32 04:44 12.70
109 4094 NATALIS ROMAIN SEH 58 0:41:56 04:46 12.58
110 4003 ANDRÉ HOUPRESSE SEH 59 0:41:59 04:47 12.56
111 4318 TADINO FRÉDÉRIC V1H 22 0:42:05 04:47 12.53
112 4042 FRAITURE GILLES SEH 60 0:42:19 04:49 12.46
113 4701 ROYEN BART SEH 61 0:42:26 04:50 12.43
114 4015 CAMUS STÉPHANIE SEF 7 0:42:29 04:50 12.41
115 4257 BARBEAUX JULIE SEF 8 0:42:29 04:50 12.41
116 4212 OGER PASCAL V2H 11 0:42:30 04:50 12.41
117 4269 DEMARTEAU LAURENT SEH 62 0:42:30 04:50 12.41
118 4400 VANHAY RONNY V1H 23 0:42:34 04:51 12.39
119 4209 VANDEVELD MANUEL V1H 24 0:42:35 04:51 12.38
120 4170 DESSOY THOMAS V2H 12 0:42:37 04:51 12.37
121 4399 VANNESTE LIESBETH SEF 9 0:42:39 04:51 12.36
122 4089 MELIN CHRISTOPHE V1H 25 0:42:48 04:52 12.32
123 4180 MICHOTTE SÉBASTIEN V1H 26 0:42:48 04:52 12.32
124 4241 PIROTTE CHRISTOPHE SEH 63 0:42:48 04:52 12.32
125 4295 LEROY JONATHAN SEH 64 0:42:53 04:53 12.30
126 4296 RAGUSA GIUSEPPE SEH 65 0:42:53 04:53 12.30
127 4246 LHOEST NICOLAS SEH 66 0:42:58 04:53 12.27
128 4017 COLLARD ARNAUD SEH 67 0:42:59 04:53 12.27
129 4385 ENGELS LOUIS ESPH 4 0:43:03 04:54 12.25
130 4317 THILION BENJAMIN SEH 68 0:43:13 04:55 12.20
131 4258 GATHY RAPHAEL SEH 69 0:43:22 04:56 12.16
132 4013 BREVERS MICHEL V1H 27 0:43:26 04:57 12.14
133 4139 ZENNARO RENAUD SEH 70 0:43:39 04:58 12.08
134 4309 GAUTHY MATTHIEU SEH 71 0:43:39 04:58 12.08
135 4232 PIROTTE ARMAND V3H 3 0:43:40 04:58 12.08
136 4289 BERTRAND PATRICK V1H 28 0:43:47 04:59 12.04
137 4078 MACHIELS STÉPHANIE SEF 10 0:43:51 04:59 12.03
138 4355 GOBIN PIERRE SEH 72 0:43:51 04:59 12.03
139 4388 COENEN ANTOINE JUH 2 0:43:52 04:59 12.02
140 4376 PROTIN NICOLAS SEH 73 0:43:58 05:00 11.99
141 4707 FINET JORDAN SEH 74 0:43:58 05:00 11.99
142 4375 COLLINGE AUDREY SEF 11 0:43:58 05:00 11.99
143 4133 DAUBE YVES V1H 29 0:43:58 05:00 11.99
144 4020 COLON WILLIAM SEH 75 0:44:02 05:01 11.98
145 4036 DESIRANT CHRISTOPHE V1H 30 0:44:10 05:02 11.94
146 4061 GONZALEZ VINCENT V1H 31 0:44:11 05:02 11.94
147 4233 DELHOUGNE BERNARD V2H 13 0:44:15 05:02 11.92
148 4002 ALLEPUZ FUSTER PAULA SEF 12 0:44:19 05:03 11.90
149 4056 GILLET GEOFFRAY SEH 76 0:44:19 05:03 11.90
150 4719 DESORT DIMITRI V2H 14 0:44:26 05:03 11.87
151 4379 GIGLIA DONATO V2H 15 0:44:28 05:04 11.86
152 4146 WARNY DIMITRI V1H 32 0:44:34 05:04 11.83
153 4090 MICHAUX CHRISTIAN V4H 1 0:44:35 05:04 11.83
154 4335 KEMPLAIRE MAXIME SEH 77 0:44:38 05:05 11.81
155 4338 CARRIER AMAURY SEH 78 0:44:38 05:05 11.81
156 4336 DESTEXHE SIMON SEH 79 0:44:38 05:05 11.81
157 4176 GRÉGOIRE VIRGINIE V1F 4 0:44:40 05:05 11.81
158 4365 WOTRON PASCAL V2H 16 0:44:41 05:05 11.80
159 4145 LAURENT PIERRE V1H 33 0:44:45 05:05 11.78
160 4029 DARMONT PIERRE V1H 34 0:44:48 05:06 11.77
161 4051 GATHY JOHAN V1H 35 0:44:48 05:06 11.77
162 4109 SWENNEN CEDRIC V1H 36 0:44:51 05:06 11.76
163 4113 THOMAS OLIVIER V1H 37 0:44:52 05:06 11.75
164 4159 DEBOUNY FABIAN SEH 80 0:45:00 05:07 11.72
165 4201 PIERRE LIONEL V2H 17 0:45:05 05:08 11.70
166 4298 GIACCHETTA BJÖRN CAH 3 0:45:30 05:11 11.59
167 4031 DAVID DIDIER V2H 18 0:45:34 05:11 11.57
168 4050 GATHY CÉLINE SEF 13 0:45:42 05:12 11.54
169 4216 WARZÉE ARNAUD CAH 4 0:45:46 05:12 11.52
170 4264 LIN ADEUUU V1H 38 0:45:55 05:13 11.48
171 4154 MAURISSEN HERVÉ V2H 19 0:45:56 05:14 11.48
172 4330 MILER LUKA MIH 1 0:45:59 05:14 11.47
173 4119 ABSIL JOEL V1H 39 0:46:03 05:14 11.45
174 4378 JUSKOWIAK JÉRÉMY SEH 81 0:46:04 05:14 11.45
175 4328 GUSTIN NICOLAS SEH 82 0:46:07 05:15 11.43
176 4186 GREGOOR FABIAN V1H 40 0:46:11 05:15 11.42
177 4226 FRAINEUX LOÏC SEH 83 0:46:12 05:15 11.41
178 4188 LEROY OLIVIER V1H 41 0:46:16 05:16 11.40
179 4096 OLIVIER JEAN-FRANÇOIS V1H 42 0:46:17 05:16 11.39
180 4156 DEBRA LAURENT V1H 43 0:46:18 05:16 11.39
181 4187 DAUTREBANDE NATHALIE V1F 5 0:46:20 05:16 11.38
182 4024 COUVRUER ISABELLE V1F 6 0:46:21 05:16 11.38
183 4367 BEAUVOIS ELISE SEF 14 0:46:26 05:17 11.36
184 4274 D'ANTUONO MARCO V1H 44 0:46:29 05:17 11.34
185 4327 FRÈRE VINCENT V1H 45 0:46:36 05:18 11.32
186 4077 MACHIELS SOPHIE SEF 15 0:46:47 05:19 11.27
187 4290 BIONDOLILO NICOLAS SEH 84 0:47:08 05:22 11.19
188 4360 DEGOTTE GREGOIRE MIH 2 0:47:15 05:23 11.16
189 4148 HUSSON MELANIE SEF 16 0:47:16 05:23 11.16
190 4240 LAKAYE MELANIE SEF 17 0:47:17 05:23 11.15
191 4093 MORHET JÉRÔME V1H 46 0:47:20 05:23 11.14
192 4192 BECK JEAN POL V3H 4 0:47:21 05:23 11.14
193 4107 SENDEN GERALD SEH 85 0:47:23 05:23 11.13
194 4227 MARION NICOLAS SEH 86 0:47:35 05:25 11.08
195 4235 DI GIROLAMO GIUSEPPE V2H 20 0:47:37 05:25 11.07
196 4263 NOLS FRÉDÉRIC V1H 47 0:47:40 05:25 11.06
197 4081 MALHERBE GAUDRIC SEH 87 0:47:46 05:26 11.04
198 4395 DEFFET BENOIT V1H 48 0:47:48 05:26 11.03
199 4184 JOIRIS SAMUEL V1H 49 0:47:55 05:27 11.01
200 4032 DE COCQUEAU AMÉLIE SEF 18 0:47:59 05:28 10.99
201 4173 SOENEN JOSÉ V3H 5 0:48:00 05:28 10.99
202 4097 ORBAN GEOFFREY SEH 88 0:48:02 05:28 10.98
203 4009 BONTE ALICE V1F 7 0:48:15 05:29 10.93
204 4054 GEYS STEPHANE SEH 89 0:48:15 05:29 10.93
205 4384 VANDERSCHUEREN PHILIPPE V1H 50 0:48:18 05:30 10.92
206 4310 DELCOMMINETTE VALERIE SEF 19 0:48:31 05:31 10.87
207 4287 NELIS RAPHAEL SEH 90 0:48:48 05:33 10.81
208 4715 VAN GORP MANON JUF 2 0:48:51 05:33 10.80
209 4344 BOLLE ETIENNZ SEH 91 0:48:53 05:34 10.79
210 4238 FAKIRI MINA SEF 20 0:48:56 05:34 10.78
211 4229 PETIT THOMAS SEH 92 0:48:58 05:34 10.77
212 4026 CURTO LAURENT V1H 51 0:49:18 05:37 10.70
213 4183 BROOKS VALENTINE V2F 2 0:49:22 05:37 10.68
214 4706 FIÉVEZ LISIANNE SEF 21 0:49:23 05:37 10.68
215 4294 GALÈRE GEOFFREY V1H 52 0:49:24 05:37 10.67
216 4303 ALBART VALERIE SEH 93 0:49:24 05:37 10.67
217 4286 JAA NATHALIE V1F 8 0:49:30 05:38 10.65
218 4392 ANCIA SÉBASTIEN V1H 53 0:49:37 05:39 10.63
219 4389 JACOB MATHIEU SEH 94 0:49:38 05:39 10.62
220 4128 ROMANELLI QUENTIN SEH 95 0:49:39 05:39 10.62
221 4127 ROMANELLI PAOLO V2H 21 0:49:39 05:39 10.62
222 4163 FIEVEZ ERIC V3H 6 0:49:39 05:39 10.62
223 4211 MORSA HENRI V2H 22 0:49:41 05:39 10.61
224 4329 ROBERT ROMAIN SEH 96 0:49:46 05:40 10.60
225 4351 LABIAUX PIERRE SEH 97 0:49:49 05:40 10.59
226 4323 FOURGEAUX SOPHIE V1F 9 0:49:54 05:41 10.57
227 4236 DAINE FABIENNE V1F 10 0:49:55 05:41 10.56
228 4214 LEONET THÉO CAH 5 0:49:58 05:41 10.55
229 4350 DEBOTZ CEDRIC SEH 98 0:50:05 05:42 10.53
230 4016 COLIGNON SÉBASTIEN V1H 54 0:50:06 05:42 10.53
231 4319 TADINO ALEX CAH 6 0:50:10 05:42 10.51
232 4160 ICKET ERIK V3H 7 0:50:17 05:43 10.49
233 4195 DARIMONT ERIC V1H 55 0:50:27 05:44 10.45
234 4390 BROEDERS SÉBASTIEN SEH 99 0:50:44 05:46 10.39
235 4718 NAGY KATALIN SEF 22 0:50:45 05:46 10.39
236 4331 MILER FRÉDÉRIC SEH 100 0:50:46 05:47 10.39
237 4325 LARIVIÈRE SÉBASTIEN V1H 56 0:50:49 05:47 10.38
238 4702 SCHIEPERS ISABELLE V1F 11 0:50:54 05:47 10.36
239 4717 BONVARLEZ RUDI V2H 23 0:50:58 05:48 10.35
240 4067 JOHNEN ANNE SOPHIE ESPF 1 0:51:01 05:48 10.34
241 4297 LONGREE MARC V2H 24 0:51:02 05:48 10.33
242 4125 VANHULLE KOEN SEH 101 0:51:04 05:49 10.33
243 4040 DUPONT MALIKA SEF 23 0:51:08 05:49 10.31
244 4014 BYA CHARLES V2H 25 0:51:21 05:51 10.27
245 4092 MONSEUR VINCENT V1H 57 0:51:24 05:51 10.26
246 4153 ANTOINE FREDERIC V2H 26 0:51:41 05:53 10.20
247 4276 ROLAND JEAN-CLAUDE V3H 8 0:51:45 05:53 10.19
248 4142 GUISSET SEBASTIEN V1H 58 0:51:50 05:54 10.17
249 4224 MEURENS JULIE SEF 24 0:52:09 05:56 10.11
250 4364 HEINE VERONIQUE V1F 12 0:52:16 05:57 10.09
251 4234 DUYSINX MICHAEL V1H 59 0:52:21 05:57 10.07
252 4151 BOSCH JEROME V1H 60 0:52:22 05:57 10.07
253 4363 MOES FRÉDÉRIC V1H 61 0:52:33 05:59 10.04
254 4158 FEYEN CAROLINE SEF 25 0:52:52 06:01 9.97
255 4068 JOHNEN MARC V3H 9 0:52:53 06:01 9.97
256 4114 TIHON BENEDICTE V2F 3 0:53:00 06:02 9.95
257 4076 LÜTHI NATHALIE V1F 13 0:53:08 06:03 9.92
258 4382 HAMER ANNE SEF 26 0:53:16 06:04 9.90
259 4383 KEVELAER EMMANUELLE V1F 14 0:53:16 06:04 9.90
260 4141 MANGUETTE NICILAS SEH 102 0:53:20 06:04 9.89
261 4222 PIRET LOLA SEF 27 0:53:24 06:05 9.88
262 4162 DENIS ISABELLE V1F 15 0:53:35 06:06 9.84
263 4393 GÉRARD PAULINE SEF 28 0:53:37 06:06 9.84
264 4164 SCHMIT SANDRINE V1F 16 0:53:44 06:07 9.81
265 4011 BOUR JEAN-PAUL V2H 27 0:53:48 06:07 9.80
266 4010 BOUR AMANDINE SEF 29 0:53:48 06:07 9.80
267 4322 GILLES LAETITIA V1F 17 0:53:56 06:08 9.78
268 4268 THIOU NATHALIE V1F 18 0:54:01 06:09 9.76
269 4267 VANDENSAVEL MANON SEF 30 0:54:01 06:09 9.76
270 4253 CLAVAREAU CINDY SEF 31 0:54:06 06:09 9.75
271 4175 COLLARD CHRISTOPHE V1H 62 0:54:07 06:09 9.74
272 4244 NIESEN YAEL SEF 32 0:54:14 06:10 9.72
273 4306 TCHEKEROUL ISABELLE V1F 19 0:54:18 06:11 9.71
274 4245 PEETERS ANNE-SOPHIE V1F 20 0:54:30 06:12 9.68
275 4004 BAUCHE STEPHAN V1H 63 0:54:39 06:13 9.65
276 4273 BAUGNIEZ MAXIME SEH 103 0:54:39 06:13 9.65
277 4332 PIROT CECILE SEF 33 0:54:40 06:13 9.65
278 4052 GATHY VINCIANE SEF 34 0:54:40 06:13 9.65
279 4709 EMMERECHTS JEANNE SEF 35 0:54:53 06:15 9.61
280 4710 DE VIELSALM PIERRE-HENRY SEH 104 0:54:53 06:15 9.61
281 4370 ALEXANDRE PASCAL V1H 64 0:55:11 06:17 9.56
282 4361 MARÉCHAL LOUIS MIH 3 0:55:17 06:17 9.54
283 4340 DEMELENNE ALAN SEH 105 0:55:21 06:18 9.53
284 4377 JUSKOWIAK PATRICK V2H 28 0:55:35 06:19 9.49
285 4012 BRÉDART DAVID SEH 106 0:55:36 06:20 9.48
286 4140 THOMAS FRANCIS V3H 10 0:55:52 06:21 9.44
287 4043 FRENAY SANDRINA V1F 21 0:56:04 06:23 9.41
288 4254 CATOUL STÉPHANIE V1F 22 0:56:05 06:23 9.40
289 4373 LEGRAND LIONEL ESPH 5 0:56:14 06:24 9.38
290 4131 BROERS ISABELLE V1F 23 0:56:19 06:24 9.36
291 4339 BEAUMEZ QUENTIN SEH 107 0:56:36 06:26 9.32
292 4213 GUILMAIN JÉRÔME V1H 65 0:56:39 06:27 9.31
293 4038 DOR RENÉ V2H 29 0:56:39 06:27 9.31
294 4354 DESTEXHE BÉATRICE V1F 24 0:57:02 06:29 9.25
295 4266 VAN KERREBROECK CELINE SEF 36 0:57:13 06:31 9.22
296 4265 LECOMTE ALINE SEF 37 0:57:14 06:31 9.21
297 4374 PAREYS QUENTIN JUH 3 0:57:22 06:32 9.19
298 4262 DIJON JOCELYNE V2F 4 0:57:28 06:32 9.18
299 4270 HERTEN NICOLAS SEH 108 0:57:35 06:33 9.16
300 4271 BAUGNIEZ CHARLOTTE SEF 38 0:57:36 06:33 9.16
301 4357 BUYDENS GUILLAUME SEH 109 0:57:40 06:34 9.14
302 4356 FERY LESLIE SEF 39 0:57:42 06:34 9.14
303 4387 COENEN CAMILLE ESPF 2 0:57:42 06:34 9.14
304 4371 REYNKENS LUCIE ESPF 3 0:57:42 06:34 9.14
305 4341 FERONT DELPHINE V1F 25 0:58:01 06:36 9.09
306 4292 VAN GORP ANDREA SEF 40 0:58:02 06:36 9.09
307 4005 BAZDOULJ NATHALIE V2F 5 0:58:05 06:37 9.08
308 4137 BELLENS JEAN MARIE V3H 11 0:58:34 06:40 9.00
309 4138 BONAZZA ISABELLA V2F 6 0:58:35 06:40 9.00
310 4172 TROKAY JULIE V1F 26 0:58:39 06:40 8.99
311 4115 VAN DEN BLINK VERDIANE V1F 27 0:58:43 06:41 8.98
312 4057 GILLOT CORINNE V1F 28 0:58:45 06:41 8.98
313 4362 LEGROS NINA SEF 41 0:58:56 06:42 8.95
314 4069 KABWE JEANNE V2F 7 0:59:00 06:43 8.94
315 4060 GOFFIN CÉLINE SEF 42 0:59:08 06:44 8.92
316 4037 DEVAUX RAPHAËL SEH 110 0:59:08 06:44 8.92
317 4101 POULET MARIE SEF 43 0:59:09 06:44 8.92
318 4320 JONET OLIVIER SEH 111 0:59:16 06:45 8.90
319 4121 BOUCHAT ANNE V2F 8 0:59:21 06:45 8.89
320 4106 SEINLET HELENE V1F 29 0:59:45 06:48 8.83
321 4203 MASSON VERONIQUE V1F 30 0:59:46 06:48 8.82
322 4205 TALLIEU HYACINTA V3F 1 0:59:47 06:48 8.82
323 4204 HANOZET DOMINIQUE V3F 2 0:59:47 06:48 8.82
324 4049 GASQUARD EMILIE SEF 44 0:59:48 06:48 8.82
325 4313 BRIQUET CAROLINE SEF 45 0:59:49 06:48 8.82
326 4314 HUPPE CAROLINE SEF 46 0:59:49 06:48 8.82
327 4312 PETION CORENTIN SEH 112 0:59:50 06:48 8.81
328 4095 OLEMANS LAURENCE SEF 47 0:59:52 06:49 8.81
329 4022 COULÉE PATRICIA V1F 31 0:59:52 06:49 8.81
330 4100 PIRARD THIERRY V2H 30 1:00:15 06:51 8.75
331 4347 MEULDER CAROLINE SEF 48 1:00:23 06:52 8.73
332 4346 DENYS ISABELLE V1F 32 1:00:24 06:52 8.73
333 4372 EL KHOUDA NOURA SEF 49 1:00:27 06:53 8.72
334 4708 DIETENS NOEMIE SEF 50 1:00:34 06:53 8.71
335 4368 COLINET AMELIE SEF 51 1:00:46 06:55 8.68
336 4391 COUGNET ALICIA SEF 52 1:01:00 06:56 8.64
337 4110 THIRY VÉRONIQUE V1F 33 1:01:01 06:57 8.64
338 4337 BODART CÉCILE SEF 53 1:02:10 07:04 8.48
339 4281 DABEE FREDERIC V1H 66 1:02:21 07:06 8.46
340 4280 MOOREN FABIENNE V1F 34 1:02:22 07:06 8.46
341 4397 MARNEFFE ARNAUD V1H 67 1:02:28 07:06 8.44
342 4396 SCHOCKAERT ALEXANE ESPF 4 1:02:28 07:06 8.44
343 4369 RIGOT FLORISE V1F 35 1:03:33 07:14 8.30
344 4047 GARNIER RENÉ V4H 2 1:04:57 07:23 8.12
345 4099 PINTE FLORENCE SEF 54 1:06:09 07:32 7.97
346 4260 TIMMERMANS MATHILDE SEF 55 1:06:15 07:32 7.96
347 4199 JEAN SÉBASTIEN SEH 113 1:07:13 07:39 7.85
348 4197 LECHIEN FLORENCE SEF 56 1:11:38 08:09 7.36
349 4072 LEMIRE FREDERIC V1H 68 1:16:28 08:42 6.90